FW7576 Weather Reports


Display with metric or nautical units.
time (UTC)temp
F
wind
direction
speed
MPH
gust
MPH
rain 1hr
in
rain 24hr
in
rain mn
in
humidity
%
barometer
mb
20260506230045 51 322 6.0 12.0 0.00 0.00 0.00 39 1013.2
20260506224536 51 293 4.0 11.0 0.00 0.00 0.00 41 1013.1
20260506223044 51 307 5.0 11.0 0.00 0.00 0.00 39 1012.9
20260506221539 51 219 5.0 11.0 0.00 0.00 0.00 40 1012.8
20260506220039 52 290 4.0 13.0 0.00 0.00 0.00 39 1012.8
20260506214541 52 328 2.0 12.0 0.00 0.00 0.00 39 1012.7
20260506213044 52 253 4.0 10.0 0.00 0.00 0.00 39 1012.9
20260506211536 53 233 4.0 11.0 0.00 0.00 0.00 39 1012.7
20260506210041 53 271 4.0 13.0 0.00 0.00 0.00 38 1012.7
20260506204538 53 245 3.0 9.0 0.00 0.00 0.00 39 1012.7
20260506203035 53 18 4.0 13.0 0.00 0.00 0.00 39 1012.7
20260506201536 53 268 6.0 11.0 0.00 0.00 0.00 39 1013.0
20260506200035 53 256 3.0 10.0 0.00 0.00 0.00 39 1013.0
20260506194539 53 255 3.0 9.0 0.00 0.00 0.00 39 1012.9
20260506193040 53 316 4.0 13.0 0.00 0.00 0.00 39 1012.8
20260506191541 53 294 5.0 11.0 0.00 0.00 0.00 39 1013.0
20260506190037 53 272 2.0 10.0 0.00 0.00 0.00 40 1013.2
20260506184547 52 274 5.0 11.0 0.00 0.00 0.00 39 1013.2
20260506183053 52 233 5.0 13.0 0.00 0.00 0.00 39 1013.1
20260506181608 52 204 3.0 13.0 0.00 0.00 0.00 41 1012.9
20260506180042 52 276 5.0 10.0 0.00 0.00 0.00 41 1012.9
20260506174541 52 263 5.0 11.0 0.00 0.00 0.00 41 1013.1
20260506173053 51 256 4.0 9.0 0.00 0.00 0.00 40 1013.2
20260506171535 51 325 5.0 15.0 0.00 0.00 0.00 39 1013.2
20260506170042 52 322 5.0 9.0 0.00 0.00 0.00 39 1013.4
20260506164543 51 296 4.0 13.0 0.00 0.00 0.00 42 1013.6
20260506163040 51 238 5.0 13.0 0.00 0.00 0.00 43 1013.5
20260506161538 51 282 4.0 11.0 0.00 0.00 0.00 41 1013.4
20260506160037 51 287 4.0 12.0 0.00 0.00 0.00 40 1013.5
20260506154537 51 258 4.0 8.0 0.00 0.00 0.00 40 1013.6
20260506153059 51 308 4.0 11.0 0.00 0.00 0.00 40 1013.5
20260506151544 50 266 4.0 10.0 0.00 0.00 0.00 41 1013.6
20260506150047 51 311 4.0 9.0 0.00 0.00 0.00 41 1013.4
20260506144538 50 304 4.0 11.0 0.00 0.00 0.00 44 1013.3
20260506143036 50 233 5.0 11.0 0.00 0.00 0.00 42 1013.3
20260506141537 50 233 5.0 13.0 0.00 0.00 0.00 42 1013.4
20260506140039 49 297 3.0 13.0 0.00 0.00 0.00 44 1013.4
20260506134538 49 234 3.0 8.0 0.00 0.00 0.00 45 1013.3
20260506133037 48 156 3.0 10.0 0.00 0.00 0.00 46 1013.3
20260506131539 48 255 3.0 7.0 0.00 0.00 0.00 47 1013.1
20260506130032 46 274 2.0 6.0 0.00 0.00 0.00 52 1013.1
20260506124534 45 242 2.0 6.0 0.00 0.00 0.00 53 1013.0
20260506123039 44 282 1.0 5.0 0.00 0.00 0.00 56 1012.8
20260506121538 42 259 1.0 4.0 0.00 0.00 0.00 58 1012.9
20260506120039 41 253 0.0 2.0 0.00 0.00 0.00 62 1013.0
20260506114536 39 280 0.0 1.0 0.00 0.00 0.00 64 1012.7
20260506113043 37 0 0.0 0.0 0.00 0.00 0.00 70 1012.4
20260506111539 35 0 0.0 0.0 0.00 0.00 0.00 73 1012.4
20260506110038 34 0 0.0 0.0 0.00 0.00 0.00 75 1012.1
20260506104536 34 0 0.0 0.0 0.00 0.00 0.00 75 1012.0
20260506103039 34 0 0.0 0.0 0.00 0.00 0.00 75 1011.7
20260506101535 34 0 0.0 0.0 0.00 0.00 0.00 75 1011.8
20260506100039 34 0 0.0 0.0 0.00 0.00 0.00 74 1011.8
20260506094540 35 0 0.0 0.0 0.00 0.00 0.00 72 1011.9
20260506093037 35 0 0.0 0.0 0.00 0.00 0.00 72 1012.0
20260506091536 35 0 0.0 0.0 0.00 0.00 0.00 73 1012.0
20260506090035 35 0 0.0 0.0 0.00 0.00 0.00 72 1012.0
20260506084539 36 0 0.0 0.0 0.00 0.00 0.00 71 1011.8
20260506083031 36 0 0.0 0.0 0.00 0.00 0.00 69 1011.7
20260506081540 36 0 0.0 1.0 0.00 0.00 0.00 69 1011.5
20260506073041 37 0 0.0 0.0 0.00 0.00 0.00 64 1011.2
20260506071542 39 0 0.0 0.0 0.00 0.00 0.00 63 1011.3
20260506061536 42 0 0.0 0.0 0.00 0.00 0.00 53 1011.5
20260506044538 44 0 0.0 1.0 0.00 0.00 0.00 46 1011.6
20260506043035 45 0 0.0 3.0 0.00 0.00 0.00 45 1011.4
20260506041538 46 0 0.0 3.0 0.00 0.00 0.00 43 1011.2
20260506040041 47 17 2.0 6.0 0.00 0.00 0.00 42 1011.0
20260506034544 47 36 4.0 11.0 0.00 0.00 0.00 41 1010.9
20260506033036 48 326 3.0 11.0 0.00 0.00 0.00 40 1011.0
20260506031535 48 37 4.0 8.0 0.00 0.00 0.00 40 1010.9
20260506030043 49 39 3.0 10.0 0.00 0.00 0.00 39 1010.8
20260506024557 49 360 4.0 9.0 0.00 0.00 0.00 39 1010.7
20260506023037 50 304 2.0 8.0 0.00 0.00 0.00 38 1010.5
20260506021536 50 340 2.0 5.0 0.00 0.00 0.00 37 1010.1
20260506020040 51 322 1.0 6.0 0.00 0.00 0.00 36 1009.9
20260506014535 51 303 2.0 7.0 0.00 0.00 0.00 35 1009.6
20260506013058 52 271 3.0 8.0 0.00 0.00 0.00 35 1009.3
20260506011541 52 345 3.0 13.0 0.00 0.00 0.00 34 1009.0
20260506010038 53 304 3.0 13.0 0.00 0.00 0.00 33 1008.9
20260506004536 53 29 3.0 8.0 0.00 0.00 0.00 33 1008.8
20260506003041 54 348 4.0 14.0 0.00 0.00 0.00 32 1008.6
20260506001544 54 347 3.0 16.0 0.00 0.00 0.00 32 1008.6
20260506000040 55 329 2.0 10.0 0.00 0.00 0.00 31 1008.4
20260505234539 55 245 5.0 11.0 0.00 0.00 0.00 31 1008.5
20260505233036 55 271 3.0 11.0 0.00 0.00 0.00 32 1008.6
20260505231538 55 225 4.0 11.0 0.00 0.00 0.00 31 1008.4